2005 RQ43
Epoch 2006 Sept. 22.0 TT = JDT 2454000.5                MPC
M  48.03942              (2000.0)            P               Q
n   0.00372225     Peri.  266.94522     +0.83595751     +0.44834503
a  41.2350058      Node    66.22417     -0.25394830     +0.82725764
e   0.0936956      Incl.   20.23274     -0.48650314     +0.33857278
P 265              H    6.7           G   0.15           U   5
Residuals in seconds of arc
K0599  705  0.1+  0.1-    K05AQ  705  0.1-  0.1-    K05C1  705  0.0   0.1-
K0599  705  0.2+  0.0     K05AQ  705  0.2+  0.0     K05C1  705  0.2+  0.2-
K059M  705  0.2-  0.0     K05AS  705  0.2-  0.1-    K069G  705  0.1+  0.0
K059M  705  0.1+  0.1+    K05AS  705  0.1+  0.1-    K069G  705  0.2+  0.5+
K059O  705  0.1+  0.1+    K05AV  705  0.0   0.0     K069I  705  0.0   0.1-
K059O  705  0.3+  0.2+    K05AV  705  0.2-  0.1-    K069I  705  0.5-  0.0
K059Q  705  0.0   0.1-    K05B2  705  0.1-  0.2+    K069U  705  0.1-  0.0
K059Q  705  0.1-  0.2-    K05B2  705  0.1-  0.1+    K069U  705  0.0   0.4+
K059S  705  0.0   0.1-    K05B7  705  0.0   0.1-    K06A2  705  0.1-  0.0
K059S  705  0.5-  0.0     K05B7  705  0.1+  0.2-    K06A2  705  0.3+  0.2-
K05A1  705  0.0   0.0     K05BA  705  0.2-  0.0     K06A3  705  0.1+  0.1-
K05A1  705  0.0   0.3+    K05BA  705  0.0   0.1+    K06A3  705  0.1-  0.1-
K05AK  705  0.1-  0.0     K05BD  705  0.1-  0.1+    K06AB  705  0.0   0.2-
K05AK  705  0.1+  0.1+    K05BD  705  0.2+  0.1+    K06AB  705  0.0   0.2-
K05AM  705  0.1-  0.0     K05BN  705  0.1-  0.0
K05AM  705  0.2+  0.1+    K05BN  705  0.2+  0.0

2005 RS43
Epoch 2006 Sept. 22.0 TT = JDT 2454000.5                MPC
M  41.94535              (2000.0)            P               Q
n   0.00299622     Peri.  266.20736     +0.66553308     +0.73565462
a  47.6526042      Node    46.36820     -0.59687474     +0.62595358
e   0.1977962      Incl.   10.02599     -0.44811412     +0.25883276
P 329              H    5.3           G   0.15           U   5
Residuals in seconds of arc
K059D  705  0.1+  0.1-    K05AN  705  0.0   0.1+    K05BU  705  0.2-  0.0
K059D  705  0.0   0.4-    K05AN  705  0.3+  0.1-    K05BU  705  0.1-  0.1-
K059F  705  0.0   0.2-    K05AP  705  0.0   0.0     K069C  705  0.1+  0.2+
K059F  705  0.2+  0.1-    K05AP  705  0.1+  0.5+    K069C  705  0.0   0.1-
K059L  705  0.1-  0.1+    K05AU  705  0.1-  0.0     K069G  705  0.0   0.0
K059L  705  0.1+  0.3+    K05AU  705  0.1+  0.1+    K069G  705  0.1-  0.0
K059P  705  0.1-  0.1-    K05B1  705  0.0   0.1+    K069I  705  0.0   0.1+
K059P  705  0.0   0.1-    K05B1  705  0.1-  0.0     K069I  705  0.2-  0.0
K059R  705  0.1-  0.0     K05B3  705  0.0   0.0     K069P  688  0.1-  0.0
K059R  705  0.1-  0.0     K05B3  705  0.0   0.1+    K069P  688  0.0   0.2-
K05AC  705  0.0   0.1-    K05B6  705  0.1-  0.1-    K069U  705  0.1+  0.0
K05AC  705  0.1-  0.2+    K05B6  705  0.0   0.1+    K069U  705  0.0   0.1-
K05AK  705  0.0   0.0     K05BJ  705  0.1-  0.1+    K06A2  705  0.1-  0.0
K05AK  705  0.1+  0.1-    K05BJ  705  0.0   0.1+    K06A2  705  0.0   0.0
K05AM  705  0.1+  0.1+    K05BO  705  0.0   0.1-    K06A4  705  0.0   0.0
K05AM  705  0.0   0.1-    K05BO  705  0.0   0.2-    K06A4  705  0.2+  0.0

2005 SC278
Epoch 2006 Sept. 22.0 TT = JDT 2454000.5                MPC
M 290.15073              (2000.0)            P               Q
n   0.00481481     Peri.   51.49654     +0.19130178     -0.98145494
a  34.7336050      Node    27.48211     +0.89207920     +0.16865257
e   0.0627626      Incl.    1.51991     +0.40938774     +0.09111807
P 205              H    7.4           G   0.15           U   4
Residuals in seconds of arc
K059M  705  0.3-  0.1+    K05AV  705  0.2-  0.1-    K068S  705  0.2-  0.2-
K059M  705  0.0   0.2+    K05AV  705  0.2+  0.1-    K068S  705  0.4+  0.3-
K059Q  705  0.1-  0.1+    K05B2  705  0.1+  0.2-    K06A1  705  0.1+  0.0
K059Q  705  0.2+  0.2+    K05B2  705  0.3+  0.1-    K06A1  705  0.2-  0.4+
K05AN  705  0.1-  0.0     K05B3  705  0.2-  0.0     K06A2  705  0.0   0.0
K05AN  705  0.1+  0.1+    K05B3  705  0.0   0.1+    K06A2  705  0.0   0.0
K05AQ  705  0.1-  0.1-    K05B6  705  0.0   0.0     K06A4  705  0.0   0.0
K05AQ  705  0.1-  0.0     K05B6  705  0.1+  0.0     K06A4  705  0.1-  0.0

2005 SD278
Epoch 2006 Sept. 22.0 TT = JDT 2454000.5                MPC
M  18.99283              (2000.0)            P               Q
n   0.00239717     Peri.  217.00452     +0.97254949     -0.18515047
a  55.2930768      Node   152.63600     +0.20343589     +0.97058634
e   0.2810643      Incl.   17.85752     -0.11296607     +0.15388781
P 411              H    6.5           G   0.15           U   6
Residuals in seconds of arc
K059P  705  0.2-  0.0     K05AR  705  0.1-  0.3-    K05BQ  705  0.1-  0.1+
K059P  705  0.1+  0.1+    K05AR  705  0.1+  0.2-    K05BQ  705  0.1+  0.1+
K05A3  705  0.2-  0.0     K05AU  705  0.1-  0.1-    K069G  705  0.1+  0.1+
K05A3  705  0.0   0.2+    K05AU  705  0.1-  0.1+    K069G  705  0.1-  0.1+
K05AM  705  0.0   0.1+    K05B1  705  0.0   0.3-    K069O  688  0.5+  1.1-
K05AM  705  0.2-  0.2+    K05B1  705  0.1-  0.1-    K069O  688  0.2-  0.6+
K05AN  705  0.1+  0.1+    K05B3  705  0.1-  0.1+    K06A1  705  0.0   0.1+
K05AN  705  0.3+  0.2+    K05B3  705  0.3+  0.1+    K06A1  705  0.2-  0.1-
K05AP  705  0.1+  0.2+    K05B6  705  0.0   0.0     K06A3  705  0.0   0.1+
K05AP  705  0.2-  0.3-    K05B6  705  0.2+  0.1+    K06A3  705  0.3-  0.0
K05AQ  705  0.1-  0.2-    K05BM  705  0.1-  0.0     K06AB  705  0.1+  0.1+
K05AQ  705  0.1+  0.2-    K05BM  705  0.1-  0.1-    K06AB  705  0.0   0.0

2005 SE278
Epoch 2006 Sept. 22.0 TT = JDT 2454000.5                MPC
M  12.46749              (2000.0)            P               Q
n   0.00359653     Peri.  265.80479     +0.99268592     -0.01684095
a  42.1903830      Node    95.12999     +0.06199217     +0.92080925
e   0.1091991      Incl.    6.89360     -0.10359359     +0.38964947
P 274              H    7.4           G   0.15           U   6
Residuals in seconds of arc
K059Q  705  0.1-  0.0     K05AQ  705  0.1-  0.2+    K069H  705  0.0   0.2+
K059Q  705  0.2+  0.0     K05AQ  705  0.2+  0.2+    K069H  705  0.2-  0.1+
K059S  705  0.1+  0.0     K05B2  705  0.2-  0.0     K06A1  705  0.3-  0.2-
K059S  705  0.0   0.1+    K05B2  705  0.0   0.1+    K06A1  705  0.2-  0.0
K05A1  705  0.2+  0.4-    K05B7  705  0.2-  0.0     K06A2  705  0.0   0.1-
K05A1  705  0.4-  0.0     K05B7  705  0.1+  0.0     K06A2  705  0.2+  0.0
K05AB  705  0.2-  0.0     K05C1  705  0.1-  0.2-    K06A4  705  0.1+  0.1-
K05AB  705  0.1+  0.1+    K05C1  705  0.1+  0.1-    K06A4  705  0.2+  0.0

2005 SF278
Epoch 2006 Sept. 22.0 TT = JDT 2454000.5                MPC
M 338.68799              (2000.0)            P               Q
n   0.00343140     Peri.  321.47621     +0.43700607     -0.87056561
a  43.5333327      Node   101.55633     +0.87181430     +0.34811457
e   0.1841095      Incl.   13.34555     +0.22128155     +0.34775244
P 287              H    7.1           G   0.15           U   4
Residuals in seconds of arc
K04AA  705  0.0   0.1+    K05AR  705  0.1+  0.2-    K05BU  705  0.0   0.0
K04AA  705  0.1-  0.0     K05AR  705  0.3+  0.2-    K05BU  705  0.2-  0.1+
K059Q  705  0.1-  0.1+    K05AS  705  0.0   0.0     K068S  705  0.0   0.1+
K059Q  705  0.0   0.2+    K05AS  705  0.2+  0.1+    K068S  705  0.1+  0.0
K059S  705  0.1+  0.0     K05AU  705  0.1-  0.2-    K069H  705  0.1-  0.1+
K059S  705  0.0   0.0     K05AU  705  0.0   0.0     K069H  705  0.0   0.0
K05A1  705  0.1-  0.2-    K05B3  705  0.1-  0.1+    K069M  705  0.2+  0.2+
K05A1  705  0.3-  0.1-    K05B3  705  0.3+  0.2+    K069M  705  0.1+  0.2+
K05A3  705  0.1+  0.4-    K05B6  705  0.1-  0.1+    K069U  705  0.0   0.5-
K05A3  705  0.0   0.1+    K05B6  705  0.2+  0.0     K069U  705  0.3-  0.1-
K05AC  705  0.1+  0.0     K05B9  705  0.2-  0.1-    K06A2  705  0.1+  0.0
K05AC  705  0.1-  0.1+    K05B9  705  0.0   0.1-    K06A2  705  0.1-  0.2+
K05AM  705  0.1-  0.1-    K05BO  705  0.1-  0.1+
K05AM  705  0.1+  0.1-    K05BO  705  0.1+  0.1+

Ephemerides:
2005 RP43                a,e,i = 93.37, 0.59, 23                 q = 38.307
Date    TT    R. A. (2000) Decl.     Delta      r     Elong.  Phase     V
2006 10 12    23 25.14   +00 13.6   38.548   39.443   153.4     0.6    22.2
2006 10 22    23 24.50   +00 10.2   38.644   39.448   143.4     0.9    22.3
2006 11 01    23 23.96   +00 07.3   38.765   39.453   133.3     1.0    22.3
2006 11 11    23 23.55   +00 05.0   38.907   39.458   123.2     1.2    22.3
2006 11 21    23 23.28   +00 03.6   39.065   39.463   113.1     1.3    22.3
2006 12 01    23 23.16   +00 03.1   39.235   39.468   103.0     1.4    22.3
2006 12 11    23 23.20   +00 03.5   39.412   39.473    92.9     1.4    22.4
2006 12 21    23 23.41   +00 05.0   39.590   39.478    82.8     1.4    22.4
2006 12 31    23 23.77   +00 07.6   39.765   39.483    72.7     1.4    22.4
2007 01 10    23 24.28   +00 11.1   39.930   39.489    62.7     1.3    22.4
2007 01 20    23 24.93   +00 15.6   40.082   39.494    52.7     1.1    22.4
2007 01 30    23 25.69   +00 21.0   40.216   39.499    42.8     1.0    22.4
2007 02 09    23 26.56   +00 27.1   40.328   39.504    32.9     0.8    22.3

